Danbury, CT

5:20 AM EST on February 23, 2017 (GMT -0500)
Danbury Municipal

Weather History for KDXR - February, 2017

Change the Weather History Date:

Friday, February 17, 2017

  Actual Average Record
Temperature  
Mean Temperature 29 °F -  
Max Temperature 39 °F 36 °F 63 °F (1981)
Min Temperature 19 °F 20 °F -5 °F (1979)
Degree Days  
Heating Degree Days 36    
Moisture  
Dew Point 14 °F    
Average Humidity 54    
Maximum Humidity 68    
Minimum Humidity 34    
Precipitation  
Precipitation 0.00 in - - ()
Sea Level Pressure  
Sea Level Pressure 29.82 in    
Wind  
Wind Speed 6 mph (West)    
Max Wind Speed 14 mph    
Max Gust Speed 23 mph    
Visibility 10 miles    
Events      
Averages and records for this station are not official NWS values.
T = Trace of Precipitation, MM = Missing Value Source: NWS Daily Summary

Daily Weather History Graph

Daily Weather History Graph

Search for Another Location

Airport or City:

Trip Planner

Search our weather history database for the weather conditions in past years. The results will help you decide how hot, cold, wet, or windy it might be!

Date:

Astronomy

Feb. 17, 2017 Rise Set
Actual Time 6:45 AM EST 5:30 PM EST
Civil Twilight 6:17 AM EST 5:58 PM EST
Nautical Twilight 5:45 AM EST 6:31 PM EST
Astronomical Twilight 5:13 AM EST 7:03 PM EST
Moon No Moon Rise 10:20 AM EST (2/17)
Length of Visible Light 11h 41m
Length of Day
10h 44m
Waning Gibbous, 60% of the Moon is Illuminated
Feb 17
Waning Gibbous
Feb 18
Last Quarter
Feb 26
New
Mar 5
First Quarter
Mar 12
Full

Hourly Weather History & Observations

Time (EST) Temp. Windchill Dew Point Humidity Pressure Visibility Wind Dir Wind Speed Gust Speed Precip Events Conditions
12:53 AM 21.9 °F 15.7 °F 10.9 °F 63% 29.77 in 10.0 mi SW 4.6 mph - N/A   Clear
1:53 AM 21.0 °F 14.6 °F 10.9 °F 65% 29.77 in 10.0 mi WSW 4.6 mph - N/A   Clear
2:53 AM 21.0 °F 14.6 °F 12.0 °F 68% 29.77 in 10.0 mi WSW 4.6 mph - N/A   Clear
3:53 AM 19.9 °F 12.1 °F 10.9 °F 68% 29.77 in 10.0 mi WSW 5.8 mph - N/A   Clear
4:53 AM 21.0 °F - 12.0 °F 68% 29.79 in 10.0 mi Calm Calm - N/A   Clear
5:53 AM 21.0 °F 12.4 °F 12.0 °F 68% 29.80 in 10.0 mi WSW 6.9 mph - N/A   Clear
6:53 AM 21.9 °F 12.5 °F 12.0 °F 66% 29.81 in 10.0 mi WSW 8.1 mph - N/A   Clear
7:53 AM 24.1 °F 17.0 °F 12.9 °F 62% 29.82 in 10.0 mi West 5.8 mph - N/A   Clear
8:53 AM 28.0 °F 18.6 °F 12.9 °F 53% 29.84 in 10.0 mi NW 10.4 mph 17.3 mph N/A   Clear
9:53 AM 28.9 °F 19.8 °F 14.0 °F 54% 29.84 in 10.0 mi WNW 10.4 mph 23.0 mph N/A   Clear
10:53 AM 32.0 °F 23.0 °F 12.9 °F 45% 29.84 in 10.0 mi WNW 11.5 mph 20.7 mph N/A   Clear
11:53 AM 33.1 °F 25.5 °F 12.9 °F 43% 29.83 in 10.0 mi WNW 9.2 mph 18.4 mph N/A   Clear
12:53 PM 36.0 °F 28.5 °F 12.9 °F 39% 29.81 in 10.0 mi WNW 10.4 mph 17.3 mph N/A   Clear
1:53 PM 37.0 °F 30.4 °F 12.9 °F 37% 29.79 in 10.0 mi NW 9.2 mph 19.6 mph N/A   Clear
2:53 PM 37.9 °F 29.6 °F 12.9 °F 36% 29.79 in 10.0 mi NNW 13.8 mph - N/A   Clear
3:53 PM 39.0 °F 33.4 °F 12.9 °F 34% 29.79 in 10.0 mi WNW 8.1 mph 18.4 mph N/A   Clear
4:53 PM 37.9 °F 32.7 °F 12.0 °F 35% 29.81 in 10.0 mi Variable 6.9 mph 16.1 mph N/A   Clear
5:53 PM 36.0 °F 32.1 °F 15.1 °F 43% 29.84 in 10.0 mi West 4.6 mph - N/A   Clear
6:53 PM 32.0 °F - 19.0 °F 59% 29.86 in 10.0 mi Calm Calm - N/A   Clear
7:53 PM 32.0 °F 28.7 °F 19.9 °F 61% 29.86 in 10.0 mi ESE 3.5 mph - N/A   Clear
8:53 PM 35.1 °F 31.0 °F 16.0 °F 46% 29.87 in 10.0 mi NNW 4.6 mph - N/A   Clear
9:53 PM 32.0 °F - 19.0 °F 59% 29.88 in 10.0 mi Calm Calm - N/A   Clear
10:53 PM 30.9 °F 26.2 °F 17.1 °F 57% 29.89 in 10.0 mi WSW 4.6 mph - N/A   Clear
11:53 PM 30.9 °F 25.2 °F 17.1 °F 57% 29.90 in 10.0 mi WSW 5.8 mph - N/A   Clear